This is the latest recevied weather packets stored in our database for station/object KC2WGU. If no packets are shown the sender has not sent any weather packets the latest 10 day(s).
| Time | Temp. | Humidity | Pressure | Rain* | Wind** | Luminosity | Snow |
|---|---|---|---|---|---|---|---|
| 1788264621 | 17.78° C | 98% | 1014.9 hPa | 1.27 mm | - | 329 W/m² | - |
| 1788264021 | 17.78° C | 98% | 1014.8 hPa | 1.52 mm | - | 329 W/m² | - |
| 1788263420 | 17.78° C | 98% | 1014.7 hPa | 1.27 mm | - | 329 W/m² | - |
| 1788262820 | 17.78° C | 98% | 1014.9 hPa | 1.52 mm | - | 329 W/m² | - |
| 1788262221 | 17.78° C | 98% | 1014.8 hPa | 1.27 mm | - | 329 W/m² | - |
| 1788261621 | 17.78° C | 98% | 1014.8 hPa | 0.76 mm | - | 329 W/m² | - |
| 1788261021 | 17.78° C | 98% | 1014.8 hPa | 0.51 mm | - | 329 W/m² | - |
| 1788260421 | 17.78° C | 98% | 1014.7 hPa | 0.25 mm | - | 329 W/m² | - |
| 1788259821 | 17.78° C | 98% | 1014.8 hPa | 0.25 mm | - | 329 W/m² | - |
| 1788259220 | 17.78° C | 98% | 1014.7 hPa | 0.25 mm | - | 329 W/m² | - |
| 1788258621 | 17.78° C | 98% | 1014.7 hPa | 0.51 mm | - | 329 W/m² | - |
| 1788258021 | 17.78° C | 98% | 1014.7 hPa | 1.27 mm | - | 0 W/m² | - |
| 1788257420 | 17.78° C | 98% | 1014.1 hPa | 1.27 mm | - | 0 W/m² | - |
| 1788256821 | 17.78° C | 98% | 1014.1 hPa | 1.52 mm | - | 0 W/m² | - |
| 1788256220 | 17.78° C | 97% | 1014.1 hPa | 1.52 mm | - | 0 W/m² | - |
| 1788255620 | 17.78° C | 97% | 1014 hPa | 1.52 mm | - | 0 W/m² | - |
| 1788255021 | 17.78° C | 97% | 1013.9 hPa | 1.27 mm | - | 0 W/m² | - |
| 1788254421 | 17.78° C | 97% | 1013.8 hPa | 0.51 mm | - | 0 W/m² | - |
| 1788253821 | 17.78° C | 97% | 1014 hPa | 0.51 mm | - | 0 W/m² | - |
| 1788253221 | 17.78° C | 97% | 1013.9 hPa | 1.27 mm | - | 0 W/m² | - |
| 1788252020 | 17.78° C | 97% | 1013.9 hPa | 2.79 mm | - | 0 W/m² | - |
| 1788251421 | 17.78° C | 97% | 1014.1 hPa | 2.79 mm | - | 0 W/m² | - |
| 1788250820 | 17.78° C | 97% | 1014 hPa | 3.05 mm | - | 0 W/m² | - |
| 1788250220 | 17.78° C | 97% | 1014.2 hPa | 4.32 mm | - | 0 W/m² | - |
| 1788249620 | 17.78° C | 97% | 1014.2 hPa | 4.83 mm | - | 0 W/m² | - |
* Rain latest hour (hover to see other rain measurements)
** Current wind speed in m/s (hover to see current wind gust speed)